Flag for Switzerland Weather past 2 weeks in Davos, Graubünden, Switzerland

Now
44 °F

Quite cool.


Feels Like: 42 °F
Forecast: 32 / 59 °F
Wind: 3 mph from South

Location: Chur-Ems

Current Time: Sep 23, 2014 at 10:27:21 AM

Latest Report: Sep 23, 2014 at 9:00 AM


Visibility: N/A

Pressure: 30.24 "Hg

Humidity: 82%

Dew point: 38 °F

Location of DavosLocation

Historic Weather in Davos — Graph

°F

Davos temperature yesterday

Maximum temperature yesterday: 62 °F (at 4:00 PM)
Minimum temperature yesterday: 49 °F (at 11:00 PM)
Average temperature yesterday: 55 °F

Past Weeks' High & Low Weather Summary

 TemperatureHumidityPressure
High77 °F (Sep 8, 2:00 PM)96% (Sep 12, 6:00 AM)30.24 "Hg (Sep 12, 6:00 AM)
Low42 °F (Sep 23, 8:00 AM)41% (Sep 18, 12:00 PM)29.85 "Hg (Sep 18, 12:00 PM)
Average61 °F76%30.01 "Hg
* Reported Sep 8 9:00 AM — Sep 23 9:00 AM, Davos, Weather by CustomWeather, © 2014

Note: Actual official high and low records may vary slightly from our data, if they occured in-between our weather recording intervals... More about our weather records

Advertising

Davos weather history for previous 24 hours

 ConditionsComfort  
Time TempWeatherWind HumidityBarometerVisibility
9:00 AM
Sep 23
44 °FQuite cool.3 mph82%30.24 "HgN/A
8:00 AM42 °FFog.3 mph86%30.24 "Hg9 mi
7:00 AM42 °FQuite cool.6 mph87%30.23 "HgN/A
6:00 AM43 °FQuite cool.2 mph90%30.22 "HgN/A
5:00 AM44 °FFog.No wind87%30.21 "Hg6 mi
4:00 AM42 °FQuite cool.No wind93%30.21 "HgN/A
3:00 AM44 °FQuite cool.1 mph86%30.21 "HgN/A
2:00 AM45 °FFog.1 mph86%30.19 "Hg5 mi
1:00 AM48 °FCool.6 mph81%30.16 "HgN/A
12:00 AM46 °FCool.3 mph89%30.18 "HgN/A
11:00 PM
Sep 22
49 °FFog.6 mph76%30.17 "Hg7 mi
10:00 PM50 °FCool.8 mph76%30.18 "HgN/A
9:00 PM50 °FCool.9 mph77%30.16 "HgN/A
8:00 PM51 °FLight rain. Overcast.9 mph82%30.15 "Hg3 mi
7:00 PM53 °FCool.7 mph80%30.10 "HgN/A
6:00 PM56 °FCool.22 mph63%30.03 "HgN/A
5:00 PM60 °FPartly sunny.16 mph56%29.98 "Hg6 mi
4:00 PM62 °FRefreshingly cool.14 mph51%29.97 "HgN/A
3:00 PM61 °FRefreshingly cool.12 mph51%30.00 "HgN/A
2:00 PM61 °FScattered clouds.14 mph53%30.03 "Hg12 mi
1:00 PM60 °FRefreshingly cool.15 mph59%30.05 "HgN/A
12:00 PM59 °FCool.12 mph65%30.07 "HgN/A
11:00 AM59 °FScattered clouds.13 mph68%30.08 "Hg12 mi
10:00 AM57 °FCool.13 mph74%30.09 "HgN/A
Weather by CustomWeather, © 2014

See weather overviewHow to use our weather pages